Weather History for Melbourne, FL

Change the Weather History Date:

Monday, August 5, 2013

  Actual Average Record
Temperature  
Mean Temperature 83 °F 82 °F  
Max Temperature 91 °F 91 °F 97 °F (1964)
Min Temperature 75 °F 73 °F 69 °F (1950)
Degree Days  
Heating Degree Days 0 0  
Month to date heating degree days 0 0  
Since 1 June heating degree days 0 0  
Since 1 July heating degree days 0 0  
Cooling Degree Days 18 17  
Month to date cooling degree days 85 85  
Year to date cooling degree days 1974 1789  
Since 1 June cooling degree days 1113 1063  
Growing Degree Days 32 (Base 50)    
Moisture  
Dew Point 75 °F    
Average Humidity 81    
Maximum Humidity 97    
Minimum Humidity 64    
Precipitation  
Precipitation 0.24 in 0.23 in 1.71 in (1953)
Month to date precipitation 0.69 1.17  
Year to date precipitation 29.67 27.34  
Sea Level Pressure  
Sea Level Pressure 29.98 in    
Wind  
Wind Speed 6 mph (WSW)    
Max Wind Speed 14 mph    
Max Gust Speed 17 mph    
Visibility 9 miles    
Events Rain , Thunderstorm    
T = Trace of Precipitation, MM = Missing Value Source: NWS Daily Summary

Daily Weather History Graph

Daily Weather History Graph

Search for Another Location

Airport:

Trip Planner

Search our weather history database for the weather conditions in past years. The results will help you decide how hot, cold, wet, or windy it might be!

Date:

Astronomy

Aug. 05, 2013 Rise Set
Actual Time 6:47 AM EDT 8:09 PM EDT
Civil Twilight 6:22 AM EDT 8:34 PM EDT
Nautical Twilight 5:52 AM EDT 9:04 PM EDT
Astronomical Twilight 5:21 AM EDT 9:35 PM EDT
Moon 5:40 AM EDT (8/5) 7:12 PM EDT (8/5)
Length of Visible Light 14h 12m
Length of Day
13h 22m
Waning Crescent, 1% of the Moon is Illuminated
Aug 5
Waning Crescent
Aug 6
New
Aug 14
First Quarter
Aug 20
Full
Aug 28
Last Quarter

Hourly Weather History & Observations

Time (EDT) Temp. Heat Index Dew Point Humidity Pressure Visibility Wind Dir Wind Speed Gust Speed Precip Events Conditions
12:53 AM 80.1 °F 85.4 °F 75.9 °F 87% 30.03 in 10.0 mi WSW 8.1 mph - N/A   Clear
1:53 AM 79.0 °F - 75.9 °F 90% 30.01 in 10.0 mi SW 3.5 mph - N/A   Clear
2:53 AM 78.1 °F - 75.9 °F 93% 29.99 in 10.0 mi WSW 4.6 mph - N/A   Clear
3:53 AM 78.1 °F - 75.9 °F 93% 29.98 in 10.0 mi West 5.8 mph - N/A   Clear
4:53 AM 78.1 °F - 75.9 °F 93% 29.98 in 10.0 mi SW 4.6 mph - N/A   Clear
5:53 AM 77.0 °F - 75.9 °F 96% 29.99 in 10.0 mi WSW 5.8 mph - N/A   Clear
6:53 AM 77.0 °F - 75.9 °F 96% 30.01 in 8.0 mi WSW 4.6 mph - N/A   Clear
7:53 AM 79.0 °F - 77.0 °F 94% 30.01 in 10.0 mi WSW 4.6 mph - N/A   Clear
8:53 AM 82.9 °F 92.8 °F 78.1 °F 85% 30.02 in 10.0 mi West 6.9 mph - N/A   Clear
9:53 AM 84.9 °F 96.6 °F 78.1 °F 80% 30.02 in 10.0 mi WNW 6.9 mph - N/A   Scattered Clouds
10:53 AM 88.0 °F 100.2 °F 77.0 °F 70% 30.01 in 10.0 mi West 9.2 mph - N/A   Partly Cloudy
11:53 AM 90.0 °F 100.2 °F 75.0 °F 61% 30.01 in 10.0 mi West 6.9 mph - N/A   Scattered Clouds
12:53 PM 89.1 °F 101.4 °F 77.0 °F 67% 30.00 in 10.0 mi ENE 6.9 mph - N/A   Mostly Cloudy
1:53 PM 89.1 °F 100.2 °F 75.9 °F 65% 29.98 in 10.0 mi ESE 8.1 mph - N/A   Scattered Clouds
2:53 PM 88.0 °F 98.5 °F 75.9 °F 67% 29.95 in 10.0 mi East 12.7 mph - N/A   Scattered Clouds
3:53 PM 86.0 °F 96.0 °F 75.9 °F 72% 29.94 in 10.0 mi ESE 9.2 mph - N/A   Scattered Clouds
4:44 PM 80.6 °F 85.4 °F 73.4 °F 79% 29.96 in 4.0 mi NNE 10.4 mph - 0.08 in Rain , Thunderstorm Light Thunderstorms and Rain
4:53 PM 79.0 °F - 75.9 °F 90% 29.95 in 4.0 mi NE 4.6 mph - 0.24 in Rain , Thunderstorm Light Thunderstorms and Rain
5:00 PM 78.8 °F - 75.2 °F 89% 29.95 in 5.0 mi West 8.1 mph - 0.00 in Rain , Thunderstorm Light Thunderstorms and Rain
5:21 PM 77.0 °F - 75.2 °F 94% 29.95 in 9.0 mi SW 8.1 mph - 0.00 in Rain , Thunderstorm Light Thunderstorms and Rain
5:53 PM 78.1 °F - 75.0 °F 90% 29.95 in 10.0 mi Calm Calm - 0.00 in   Scattered Clouds
6:53 PM 78.1 °F - 75.0 °F 90% 29.96 in 10.0 mi Calm Calm - N/A   Mostly Cloudy
7:53 PM 77.0 °F - 73.0 °F 88% 29.97 in 10.0 mi SW 9.2 mph - N/A Thunderstorm Mostly Cloudy
8:16 PM 75.2 °F - 73.4 °F 94% 30.00 in 10.0 mi WNW 8.1 mph - N/A Thunderstorm Mostly Cloudy
8:53 PM 75.9 °F - 73.0 °F 91% 30.00 in 10.0 mi WSW 9.2 mph - N/A Thunderstorm Mostly Cloudy
9:22 PM 75.2 °F - 73.4 °F 94% 29.98 in 10.0 mi WSW 10.4 mph - N/A Thunderstorm Clear
9:42 PM 75.2 °F - 73.4 °F 94% 29.98 in 10.0 mi WSW 9.2 mph - N/A   Clear
9:53 PM 75.0 °F - 73.0 °F 94% 29.98 in 10.0 mi WSW 8.1 mph - N/A   Clear
10:53 PM 75.0 °F - 73.0 °F 94% 29.99 in 10.0 mi West 6.9 mph - N/A   Clear
11:53 PM 75.0 °F - 73.0 °F 94% 29.97 in 10.0 mi WNW 4.6 mph - N/A   Clear